QPF
0.00 0.00 0.00 0.00 0.00 0.00 0.00 0.00 0.00 0.00 0.00 0.00 0.00 0.00 0.00 0.00 0.00 0.00 0.00 0.00 0.00 0.00 0.00 0.00 0.00 0.00 0.00 0.00 0.00 0.00 0.00 0.00 0.00 0.00 0.00 0.00 0.00 0.00 0.00 0.00 0.00 0.00 0.00 0.00 0.00 0.00 0.00 0.00 0.00 0.00 0.00 0.00 0.00 0.00 0.00 0.00 0.00 0.00 0.00 0.00 0.00 0.00 0.00 0.00 0.00 0.00 0.00 0.00 0.00
0.00 0.00 0.00 0.00 0.00 0.00 0.00 0.00 0.00 0.00 0.00 0.00 0.00 0.00 0.00 0.00 0.00 0.00 0.00 0.00 0.00 0.00 0.00 0.00 0.00 0.00 0.00 0.00 0.00 0.00 0.00 0.00 0.00 0.00 0.00 0.00 0.00 0.00 0.00 0.00 0.00 0.00 0.00 0.00 0.00 0.00 0.00 0.00 0.00 0.00 0.00 0.00 0.00 0.00 0.00 0.00 0.00 0.00 0.00 0.00 0.00 0.00 0.00 0.00 0.00 0.00 0.00 0.00 0.00
0.00 0.00 0.00 0.00 0.00 0.00 0.00 0.00 0.00 0.00 0.00 0.00 0.00 0.00 0.00 0.00 0.00 0.00 0.00 0.00 0.00 0.00 0.00 0.00 0.00 0.00 0.00 0.00 0.00 0.00 0.00 0.00 0.00 0.00 0.00 0.00 0.00 0.00 0.00 0.00 0.00 0.00 0.00 0.00 0.00 0.00 0.00 0.00 0.00 0.00 0.00 0.00 0.00 0.00 0.00 0.00 0.00 0.00 0.00 0.00 0.00 0.00 0.00 0.00 0.00 0.00 0.00 0.00 0.00
0.00 0.00 0.00 0.00 0.00 0.00 0.00 0.00 0.00 0.00 0.00 0.00 0.00 0.00 0.00 0.00 0.00 0.00 0.00 0.00 0.00 0.00 0.00 0.00 0.00 0.00 0.00 0.00 0.00 0.00 0.00 0.00 0.00 0.00 0.00 0.00 0.00 0.00 0.00 0.00 0.00 0.00 0.00 0.00 0.00 0.00 0.00 0.00 0.00 0.00 0.00 0.00 0.00 0.00 0.00 0.00 0.00 0.00 0.00 0.00 0.00 0.00 0.00 0.00 0.00 0.00 0.00 0.00 0.00
0.00 0.00 0.00 0.00 0.00 0.00 0.00 0.00 0.00 0.00 0.00 0.00 0.00 0.00 0.00 0.00 0.00 0.00 0.00 0.00 0.00 0.00 0.00 0.00 0.00 0.00 0.00 0.00 0.00 0.00 0.00 0.00 0.00 0.00 0.00 0.00 0.00 0.00 0.00 0.00 0.00 0.00 0.00 0.00 0.00 0.00 0.00 0.00 0.00 0.00 0.00 0.00 0.00 0.00 0.00 0.00 0.00 0.00 0.00 0.00 0.00 0.00 0.00 0.00 0.00 0.00 0.00 0.00 0.00
0.00 0.00 0.00 0.00 0.00 0.00 0.00 0.00 0.00 0.00 0.00 0.00 0.00 0.00 0.00 0.00 0.00 0.00 0.00 0.00 0.00 0.00 0.00 0.00 0.00 0.00 0.00 0.00 0.00 0.00 0.00 0.00 0.00 0.00 0.00 0.00 0.00 0.00 0.00 0.00 0.00 0.00 0.00 0.00 0.00 0.00 0.00 0.00 0.00 0.00 0.00 0.00 0.00 0.00 0.00 0.00 0.00 0.00 0.00 0.00 0.00 0.00 0.00 0.00 0.00 0.00 0.00 0.00 0.00
0.00 0.00 0.00 0.00 0.00 0.00 0.00 0.00 0.00 0.00 0.00 0.00 0.00 0.00 0.00 0.00 0.00 0.00 0.00 0.00 0.00 0.00 0.00 0.00 0.00 0.00 0.00 0.00 0.00 0.00 0.00 0.00 0.00 0.00 0.00 0.00 0.00 0.00 0.00 0.00 0.00 0.00 0.00 0.00 0.00 0.00 0.00 0.00 0.00 0.00 0.00 0.00 0.00 0.00 0.00 0.00 0.00 0.00 0.00 0.00 0.00 0.00 0.00 0.00 0.00 0.00 0.00 0.00 0.00
0.00 0.00 0.00 0.00 0.00 0.00 0.00 0.00 0.00 0.00 0.00 0.00 0.00 0.00 0.00 0.00 0.00 0.00 0.00 0.00 0.00 0.00 0.00 0.00 0.00 0.00 0.00 0.00 0.00 0.00 0.00 0.00 0.00 0.00 0.00 0.00 0.00 0.00 0.00 0.00 0.00 0.00 0.00 0.00 0.00 0.00 0.00 0.00 0.00 0.00 0.00 0.00 0.00 0.00 0.00 0.00 0.00 0.00 0.00 0.00 0.00 0.00 0.00 0.00 0.00 0.00 0.00 0.00 0.00
0.00 0.00 0.00 0.00 0.00 0.00 0.00 0.00 0.00 0.00 0.00 0.00 0.00 0.00 0.00 0.00 0.00 0.00 0.00 0.00 0.00 0.00 0.00 0.00 0.00 0.00 0.00 0.00 0.00 0.00 0.00 0.00 0.00 0.00 0.00 0.00 0.00 0.00 0.00 0.00 0.00 0.00 0.00 0.00 0.00 0.00 0.00 0.00 0.00 0.00 0.00 0.00 0.00 0.00 0.00 0.00 0.00 0.00 0.00 0.00 0.00 0.00 0.00 0.00 0.00 0.00 0.00 0.00 0.00
0.00 0.00 0.00 0.00 0.00 0.00 0.00 0.00 0.00 0.00 0.00 0.00 0.00 0.00 0.00 0.00 0.00 0.00 0.00 0.00 0.00 0.00 0.00 0.00 0.00 0.00 0.00 0.00 0.00 0.00 0.00 0.00 0.00 0.00 0.00 0.00 0.00 0.00 0.00 0.00 0.00 0.00 0.00 0.00 0.00 0.00 0.00 0.00 0.00 0.00 0.00 0.00 0.00 0.00 0.00 0.00 0.00 0.00 0.00 0.00 0.00 0.00 0.00 0.00 0.00 0.00 0.00 0.00 0.00
0.00 0.00 0.00 0.00 0.00 0.00 0.00 0.00 0.00 0.00 0.00 0.00 0.00 0.00 0.00 0.00 0.00 0.00 0.00 0.00 0.00 0.00 0.00 0.00 0.00 0.00 0.00 0.00 0.00 0.00 0.00 0.00 0.00 0.00 0.00 0.00 0.00 0.00 0.00 0.00 0.00 0.00 0.00 0.00 0.00 0.00 0.00 0.00 0.00 0.00 0.00 0.00 0.00 0.00 0.00 0.00 0.00 0.00 0.00 0.00 0.00 0.00 0.00 0.00 0.00 0.00 0.00 0.00 0.00
0.00 0.00 0.00 0.00 0.00 0.00 0.00 0.00 0.00 0.00 0.00 0.00 0.00 0.00 0.00 0.00 0.00 0.00 0.00 0.00 0.00 0.00 0.00 0.00 0.00 0.00 0.00 0.00 0.00 0.00 0.00 0.00 0.00 0.00 0.00 0.00 0.00 0.00 0.00 0.00 0.00 0.00 0.00 0.00 0.00 0.00 0.00 0.00 0.00 0.00 0.00 0.00 0.00 0.00 0.00 0.00 0.00 0.00 0.00 0.00 0.00 0.00 0.00 0.00 0.00 0.00 0.00 0.00 0.00
0.00 0.00 0.00 0.00 0.00 0.00 0.00 0.00 0.00 0.00 0.00 0.00 0.00 0.00 0.00 0.00 0.00 0.00 0.00 0.00 0.00 0.00 0.00 0.00 0.00 0.00 0.00 0.00 0.00 0.00 0.00 0.00 0.00 0.00 0.00 0.00 0.00 0.00 0.00 0.00 0.00 0.00 0.00 0.00 0.00 0.00 0.00 0.00 0.00 0.00 0.00 0.00 0.00 0.00 0.00 0.00 0.00 0.00 0.00 0.00 0.00 0.00 0.00 0.00 0.00 0.00 0.00 0.00 0.00
0.00 0.00 0.00 0.00 0.00 0.00 0.00 0.00 0.00 0.00 0.00 0.00 0.00 0.00 0.00 0.00 0.00 0.00 0.00 0.00 0.00 0.00 0.00 0.00 0.00 0.00 0.00 0.00 0.00 0.00 0.00 0.00 0.00 0.00 0.00 0.00 0.00 0.00 0.00 0.00 0.00 0.00 0.00 0.00 0.00 0.00 0.00 0.00 0.00 0.00 0.00 0.00 0.00 0.00 0.00 0.00 0.00 0.00 0.00 0.00 0.00 0.00 0.00 0.00 0.00 0.00 0.00 0.00 0.00
0.00 0.00 0.00 0.00 0.00 0.00 0.00 0.00 0.00 0.00 0.00 0.00 0.00 0.00 0.00 0.00 0.00 0.00 0.00 0.00 0.00 0.00 0.00 0.00 0.00 0.00 0.00 0.00 0.00 0.00 0.00 0.00 0.00 0.00 0.00 0.00 0.00 0.00 0.00 0.00 0.00 0.00 0.00 0.00 0.00 0.00 0.00 0.00 0.00 0.00 0.00 0.00 0.00 0.00 0.00 0.00 0.00 0.00 0.00 0.00 0.00 0.00 0.00 0.00 0.00 0.00 0.00 0.00 0.00
0.00 0.00 0.00 0.00 0.00 0.00 0.00 0.00 0.00 0.00 0.00 0.00 0.00 0.00 0.00 0.00 0.00 0.00 0.00 0.00 0.00 0.00 0.00 0.00 0.00 0.00 0.00 0.00 0.00 0.00 0.00 0.00 0.00 0.00 0.00 0.00 0.00 0.00 0.00 0.00 0.00 0.00 0.00 0.00 0.00 0.00 0.00 0.00 0.00 0.00 0.00 0.00 0.00 0.00 0.00 0.00 0.00 0.00 0.00 0.00 0.00 0.00 0.00 0.00 0.00 0.00 0.00 0.00 0.00
0.00 0.00 0.00 0.00 0.00 0.00 0.00 0.00 0.00 0.00 0.00 0.00 0.00 0.00 0.00 0.00 0.00 0.00 0.00 0.00 0.00 0.00 0.00 0.00 0.00 0.00 0.00 0.00 0.00 0.00 0.00 0.00 0.00 0.00 0.00 0.00 0.00 0.00 0.00 0.00 0.00 0.00 0.00 0.00 0.00 0.00 0.00 0.00 0.00 0.00 0.00 0.00 0.00 0.00 0.00 0.00 0.00 0.00 0.00 0.00 0.00 0.00 0.00 0.00 0.00 0.00 0.00 0.00 0.00
0.00 0.00 0.00 0.00 0.00 0.00 0.00 0.00 0.00 0.00 0.00 0.00 0.00 0.00 0.00 0.00 0.00 0.00 0.00 0.00 0.00 0.00 0.00 0.00 0.00 0.00 0.00 0.00 0.00 0.00 0.00 0.00 0.00 0.00 0.00 0.00 0.00 0.00 0.00 0.00 0.00 0.00 0.00 0.00 0.00 0.00 0.00 0.00 0.00 0.00 0.00 0.00 0.00 0.00 0.00 0.00 0.00 0.00 0.00 0.00 0.00 0.00 0.00 0.00 0.00 0.00 0.00 0.00 0.00
0.00 0.00 0.00 0.00 0.00 0.00 0.00 0.00 0.00 0.00 0.00 0.00 0.00 0.00 0.00 0.00 0.00 0.00 0.00 0.00 0.00 0.00 0.00 0.00 0.00 0.00 0.00 0.00 0.00 0.00 0.00 0.00 0.00 0.00 0.00 0.00 0.00 0.00 0.00 0.00 0.00 0.00 0.00 0.00 0.00 0.00 0.00 0.00 0.00 0.00 0.00 0.00 0.00 0.00 0.00 0.00 0.00 0.00 0.00 0.00 0.00 0.00 0.00 0.00 0.00 0.00 0.00 0.00 0.00
0.00 0.00 0.00 0.00 0.00 0.00 0.00 0.00 0.00 0.00 0.00 0.00 0.00 0.00 0.00 0.00 0.00 0.00 0.00 0.00 0.00 0.00 0.00 0.00 0.00 0.00 0.00 0.00 0.00 0.00 0.00 0.00 0.00 0.00 0.00 0.00 0.00 0.00 0.00 0.00 0.00 0.00 0.00 0.00 0.00 0.00 0.00 0.00 0.00 0.00 0.00 0.00 0.00 0.00 0.00 0.00 0.00 0.00 0.00 0.00 0.00 0.00 0.00 0.00 0.00 0.00 0.00 0.00 0.00
0.00 0.00 0.00 0.00 0.00 0.00 0.00 0.00 0.00 0.00 0.00 0.00 0.00 0.00 0.00 0.00 0.00 0.00 0.00 0.00 0.00 0.00 0.00 0.00 0.00 0.00 0.00 0.00 0.00 0.00 0.00 0.00 0.00 0.00 0.00 0.00 0.00 0.00 0.00 0.00 0.00 0.00 0.00 0.00 0.00 0.00 0.00 0.00 0.00 0.00 0.00 0.00 0.00 0.00 0.00 0.00 0.00 0.00 0.00 0.00 0.00 0.00 0.00 0.00 0.00 0.00 0.00 0.00 0.00
0.00 0.00 0.00 0.00 0.00 0.00 0.00 0.00 0.00 0.00 0.00 0.00 0.00 0.00 0.00 0.00 0.00 0.00 0.00 0.00 0.00 0.00 0.00 0.00 0.00 0.00 0.00 0.00 0.00 0.00 0.00 0.00 0.00 0.00 0.00 0.00 0.00 0.00 0.00 0.00 0.00 0.00 0.00 0.00 0.00 0.00 0.00 0.00 0.00 0.00 0.00 0.00 0.00 0.00 0.00 0.00 0.00 0.00 0.00 0.00 0.00 0.00 0.00 0.00 0.00 0.00 0.00 0.00 0.00
0.00 0.00 0.00 0.00 0.00 0.00 0.00 0.00 0.00 0.00 0.00 0.00 0.00 0.00 0.00 0.00 0.00 0.00 0.00 0.00 0.00 0.00 0.00 0.00 0.00 0.00 0.00 0.00 0.00 0.00 0.00 0.00 0.00 0.00 0.00 0.00 0.00 0.00 0.00 0.00 0.00 0.00 0.00 0.00 0.00 0.00 0.00 0.00 0.00 0.00 0.00 0.00 0.00 0.00 0.00 0.00 0.00 0.00 0.00 0.00 0.00 0.00 0.00 0.00 0.00 0.00 0.00 0.00 0.00
0.00 0.00 0.00 0.00 0.00 0.00 0.00 0.00 0.00 0.00 0.00 0.00 0.00 0.00 0.00 0.00 0.00 0.00 0.00 0.00 0.00 0.00 0.00 0.00 0.00 0.00 0.00 0.00 0.00 0.00 0.00 0.00 0.00 0.00 0.00 0.00 0.00 0.00 0.00 0.00 0.00 0.00 0.00 0.00 0.00 0.00 0.00 0.00 0.00 0.00 0.00 0.00 0.00 0.00 0.00 0.00 0.00 0.00 0.00 0.00 0.00 0.00 0.00 0.00 0.00 0.00 0.00 0.00 0.00
0.00 0.00 0.00 0.00 0.00 0.00 0.00 0.00 0.00 0.00 0.00 0.00 0.00 0.00 0.00 0.00 0.00 0.00 0.00 0.00 0.00 0.00 0.00 0.00 0.00 0.00 0.00 0.00 0.00 0.00 0.00 0.00 0.00 0.00 0.00 0.00 0.00 0.00 0.00 0.00 0.00 0.00 0.00 0.00 0.00 0.00 0.00 0.00 0.00 0.00 0.00 0.00 0.00 0.00 0.00 0.00 0.00 0.00 0.00 0.00 0.00 0.00 0.00 0.00 0.00 0.00 0.00 0.00 0.00
0.00 0.00 0.00 0.00 0.00 0.00 0.00 0.00 0.00 0.00 0.01 0.01 0.01 0.01 0.00 0.00 0.00 0.00 0.00 0.00 0.00 0.00 0.00 0.00 0.00 0.00 0.00 0.00 0.00 0.00 0.00 0.00 0.00 0.00 0.00 0.00 0.00 0.00 0.00 0.00 0.00 0.00 0.00 0.00 0.00 0.00 0.00 0.00 0.00 0.00 0.00 0.00 0.00 0.00 0.00 0.00 0.00 0.00 0.00 0.00 0.00 0.00 0.00 0.00 0.00 0.00 0.00 0.00 0.00
0.00 0.00 0.00 0.01 0.01 0.01 0.01 0.01 0.01 0.01 0.01 0.01 0.01 0.00 0.00 0.00 0.00 0.00 0.00 0.00 0.00 0.00 0.00 0.00 0.00 0.00 0.00 0.00 0.00 0.00 0.00 0.00 0.00 0.00 0.00 0.00 0.00 0.00 0.00 0.00 0.00 0.00 0.00 0.00 0.00 0.00 0.00 0.00 0.00 0.00 0.00 0.00 0.00 0.00 0.00 0.00 0.00 0.00 0.00 0.00 0.00 0.00 0.00 0.00 0.00 0.00 0.00 0.00 0.00
0.00 0.01 0.01 0.01 0.01 0.01 0.01 0.00 0.00 0.00 0.00 0.00 0.00 0.00 0.00 0.00 0.00 0.00 0.00 0.00 0.00 0.00 0.00 0.00 0.00 0.00 0.00 0.00 0.00 0.00 0.00 0.00 0.00 0.00 0.00 0.00 0.00 0.00 0.00 0.00 0.00 0.00 0.00 0.00 0.00 0.00 0.00 0.00 0.00 0.00 0.00 0.00 0.00 0.00 0.00 0.00 0.00 0.00 0.00 0.00 0.00 0.00 0.00 0.00 0.00 0.00 0.00 0.00 0.00
0.00 0.00 0.00 0.00 0.00 0.00 0.00 0.00 0.00 0.00 0.00 0.00 0.00 0.00 0.00 0.00 0.00 0.00 0.00 0.00 0.00 0.00 0.00 0.00 0.00 0.00 0.00 0.00 0.00 0.00 0.00 0.00 0.00 0.00 0.00 0.00 0.00 0.00 0.00 0.00 0.00 0.00 0.00 0.00 0.00 0.00 0.00 0.00 0.00 0.00 0.00 0.00 0.00 0.00 0.00 0.00 0.00 0.00 0.00 0.00 0.00 0.00 0.00 0.00 0.00 0.00 0.00 0.00 0.00
0.00 0.00 0.00 0.00 0.00 0.00 0.00 0.00 0.00 0.00 0.00 0.00 0.00 0.00 0.00 0.00 0.00 0.00 0.00 0.00 0.00 0.00 0.00 0.00 0.00 0.00 0.00 0.00 0.00 0.00 0.00 0.00 0.00 0.00 0.00 0.00 0.00 0.00 0.00 0.00 0.00 0.00 0.00 0.00 0.00 0.00 0.00 0.00 0.00 0.00 0.00 0.00 0.00 0.00 0.00 0.00 0.00 0.00 0.00 0.00 0.00 0.00 0.00 0.00 0.00 0.00 0.00 0.00 0.00
0.00 0.00 0.00 0.00 0.00 0.00 0.00 0.00 0.00 0.00 0.00 0.00 0.00 0.00 0.00 0.00 0.00 0.00 0.00 0.00 0.00 0.00 0.00 0.00 0.00 0.00 0.00 0.00 0.00 0.00 0.00 0.00 0.00 0.00 0.00 0.00 0.00 0.00 0.00 0.00 0.00 0.00 0.00 0.00 0.00 0.00 0.00 0.00 0.00 0.00 0.00 0.00 0.00 0.00 0.00 0.00 0.00 0.00 0.00 0.00 0.00 0.00 0.00 0.00 0.00 0.00 0.00 0.00 0.00
0.00 0.00 0.00 0.00 0.00 0.00 0.00 0.00 0.00 0.00 0.00 0.00 0.00 0.00 0.00 0.00 0.00 0.00 0.00 0.00 0.00 0.00 0.00 0.00 0.00 0.00 0.00 0.00 0.00 0.00 0.00 0.00 0.00 0.00 0.00 0.00 0.00 0.00 0.00 0.00 0.00 0.00 0.00 0.00 0.00 0.00 0.00 0.00 0.00 0.00 0.00 0.00 0.00 0.00 0.00 0.00 0.00 0.00 0.00 0.00 0.00 0.00 0.00 0.00 0.00 0.00 0.00 0.00 0.00
0.00 0.00 0.00 0.00 0.00 0.00 0.00 0.00 0.00 0.00 0.00 0.00 0.00 0.00 0.00 0.00 0.00 0.00 0.00 0.00 0.00 0.00 0.00 0.00 0.00 0.00 0.00 0.00 0.00 0.00 0.00 0.00 0.00 0.00 0.00 0.00 0.00 0.00 0.00 0.00 0.00 0.00 0.00 0.00 0.00 0.00 0.00 0.00 0.00 0.00 0.00 0.00 0.00 0.00 0.00 0.00 0.00 0.00 0.00 0.00 0.00 0.00 0.00 0.00 0.00 0.00 0.00 0.00 0.00
0.00 0.00 0.00 0.00 0.00 0.00 0.00 0.00 0.00 0.00 0.00 0.00 0.00 0.00 0.00 0.00 0.00 0.00 0.00 0.00 0.00 0.00 0.00 0.00 0.00 0.00 0.00 0.00 0.00 0.00 0.00 0.00 0.00 0.00 0.00 0.00 0.00 0.00 0.00 0.00 0.00 0.00 0.00 0.00 0.00 0.00 0.00 0.00 0.00 0.00 0.00 0.00 0.00 0.00 0.00 0.00 0.00 0.00 0.00 0.00 0.00 0.00 0.00 0.00 0.00 0.00 0.00 0.00 0.00
0.00 0.00 0.00 0.00 0.00 0.00 0.00 0.00 0.00 0.00 0.00 0.00 0.00 0.00 0.00 0.00 0.00 0.00 0.00 0.00 0.00 0.00 0.00 0.00 0.00 0.00 0.00 0.00 0.00 0.00 0.00 0.00 0.00 0.00 0.00 0.00 0.00 0.00 0.00 0.00 0.00 0.00 0.00 0.00 0.00 0.00 0.00 0.00 0.00 0.00 0.00 0.00 0.00 0.00 0.00 0.00 0.00 0.00 0.00 0.00 0.00 0.00 0.00 0.00 0.00 0.00 0.00 0.00 0.00
0.00 0.00 0.00 0.00 0.00 0.00 0.00 0.00 0.00 0.00 0.00 0.00 0.00 0.00 0.00 0.00 0.00 0.00 0.00 0.00 0.00 0.00 0.00 0.00 0.00 0.00 0.00 0.00 0.00 0.00 0.00 0.00 0.00 0.00 0.00 0.00 0.00 0.00 0.00 0.00 0.00 0.00 0.00 0.00 0.00 0.00 0.00 0.00 0.00 0.00 0.00 0.00 0.00 0.00 0.00 0.00 0.00 0.00 0.00 0.00 0.00 0.00 0.00 0.00 0.00 0.00 0.00 0.00 0.00
0.00 0.00 0.00 0.00 0.00 0.00 0.00 0.00 0.00 0.00 0.00 0.00 0.00 0.00 0.00 0.00 0.00 0.00 0.00 0.00 0.00 0.00 0.00 0.00 0.00 0.00 0.00 0.00 0.00 0.00 0.00 0.00 0.00 0.00 0.00 0.00 0.00 0.00 0.00 0.00 0.00 0.00 0.00 0.00 0.00 0.00 0.00 0.00 0.00 0.00 0.00 0.00 0.00 0.00 0.00 0.00 0.00 0.00 0.00 0.00 0.00 0.00 0.00 0.00 0.00 0.00 0.00 0.00 0.00
0.00 0.00 0.00 0.00 0.00 0.00 0.00 0.00 0.00 0.00 0.00 0.00 0.00 0.00 0.00 0.00 0.00 0.00 0.00 0.00 0.00 0.00 0.00 0.00 0.00 0.00 0.00 0.00 0.00 0.00 0.00 0.00 0.00 0.00 0.00 0.00 0.00 0.00 0.00 0.00 0.00 0.00 0.00 0.00 0.00 0.00 0.00 0.00 0.00 0.00 0.00 0.00 0.00 0.00 0.00 0.00 0.00 0.00 0.00 0.00 0.00 0.00 0.00 0.00 0.00 0.00 0.00 0.00 0.00
0.00 0.00 0.00 0.00 0.00 0.00 0.00 0.00 0.00 0.00 0.00 0.00 0.00 0.00 0.00 0.00 0.00 0.00 0.00 0.00 0.00 0.00 0.00 0.00 0.00 0.00 0.00 0.00 0.00 0.00 0.00 0.00 0.00 0.00 0.00 0.00 0.00 0.00 0.00 0.00 0.00 0.00 0.00 0.00 0.00 0.00 0.00 0.00 0.00 0.00 0.00 0.00 0.00 0.00 0.00 0.00 0.00 0.00 0.00 0.00 0.00 0.00 0.00 0.00 0.00 0.01 0.03 0.03 0.03
0.00 0.00 0.00 0.00 0.00 0.00 0.00 0.00 0.00 0.00 0.00 0.00 0.00 0.00 0.00 0.00 0.00 0.00 0.00 0.00 0.00 0.00 0.00 0.00 0.00 0.00 0.00 0.00 0.00 0.00 0.00 0.00 0.00 0.00 0.00 0.00 0.00 0.00 0.00 0.00 0.00 0.00 0.00 0.00 0.00 0.00 0.00 0.00 0.00 0.00 0.00 0.00 0.00 0.00 0.00 0.01 0.01 0.01 0.01 0.01 0.01 0.01 0.01 0.01 0.02 0.05 0.07 0.06 0.05
0.00 0.00 0.00 0.00 0.00 0.00 0.00 0.00 0.00 0.00 0.00 0.00 0.00 0.00 0.00 0.00 0.00 0.00 0.00 0.00 0.00 0.00 0.00 0.00 0.00 0.00 0.00 0.00 0.00 0.00 0.00 0.00 0.00 0.00 0.00 0.00 0.00 0.00 0.00 0.00 0.00 0.00 0.00 0.00 0.00 0.00 0.00 0.00 0.00 0.00 0.00 0.00 0.00 0.00 0.01 0.02 0.03 0.03 0.03 0.03 0.03 0.05 0.07 0.07 0.08 0.06 0.04 0.03 0.02
MSLP
1012.61 1012.57 1012.53 1012.53 1012.57 1012.61 1012.69 1012.69 1012.85 1012.97 1013.05 1013.21 1013.41 1013.65 1013.85 1014.09 1014.41 1014.65 1014.81 1014.97 1015.25 1015.45 1015.65 1015.93 1016.09 1016.33 1016.53 1016.61 1016.69 1016.81 1016.97 1017.17 1017.37 1017.65 1017.85 1018.05 1018.25 1018.45 1018.61 1018.77 1018.89 1018.97 1019.05 1019.09 1019.09 1019.09 1019.09 1019.09 1019.09 1019.01 1018.97 1018.97 1018.97 1018.97 1018.93 1018.85 1018.85 1018.81 1018.81 1018.69 1018.61 1018.53 1018.41 1018.37 1018.25 1018.17 1018.09 1017.97 1017.93
1012.49 1012.37 1012.33 1012.37 1012.37 1012.45 1012.53 1012.69 1012.89 1012.97 1013.01 1013.17 1013.37 1013.61 1013.81 1014.05 1014.37 1014.69 1014.85 1015.05 1015.25 1015.45 1015.65 1015.93 1016.13 1016.37 1016.53 1016.65 1016.81 1016.97 1017.09 1017.25 1017.49 1017.65 1017.89 1018.09 1018.33 1018.53 1018.69 1018.81 1018.85 1018.93 1018.97 1018.97 1018.97 1018.97 1018.97 1018.93 1018.93 1018.93 1018.89 1018.85 1018.89 1018.85 1018.81 1018.69 1018.69 1018.69 1018.69 1018.57 1018.49 1018.37 1018.25 1018.21 1018.09 1018.01 1017.97 1017.85 1017.77
1012.37 1012.25 1012.25 1012.33 1012.37 1012.49 1012.65 1012.77 1012.89 1012.97 1013.09 1013.21 1013.49 1013.73 1013.93 1014.17 1014.45 1014.73 1014.97 1015.17 1015.33 1015.53 1015.77 1015.97 1016.21 1016.37 1016.53 1016.73 1016.85 1016.97 1017.13 1017.33 1017.53 1017.77 1017.97 1018.21 1018.41 1018.57 1018.69 1018.81 1018.81 1018.81 1018.81 1018.81 1018.81 1018.81 1018.81 1018.77 1018.77 1018.77 1018.77 1018.73 1018.77 1018.77 1018.69 1018.61 1018.57 1018.57 1018.53 1018.41 1018.33 1018.25 1018.13 1018.09 1017.97 1017.85 1017.81 1017.73 1017.65
1012.33 1012.25 1012.25 1012.25 1012.33 1012.37 1012.53 1012.77 1012.89 1013.01 1013.13 1013.33 1013.65 1013.89 1014.09 1014.33 1014.61 1014.81 1015.09 1015.25 1015.49 1015.69 1015.89 1016.09 1016.29 1016.41 1016.57 1016.81 1016.93 1017.09 1017.25 1017.45 1017.65 1017.89 1018.09 1018.29 1018.49 1018.57 1018.65 1018.69 1018.69 1018.69 1018.65 1018.65 1018.69 1018.65 1018.61 1018.61 1018.61 1018.61 1018.61 1018.61 1018.65 1018.61 1018.53 1018.45 1018.41 1018.37 1018.33 1018.21 1018.13 1018.09 1018.01 1017.93 1017.81 1017.77 1017.69 1017.61 1017.53
1012.37 1012.29 1012.25 1012.25 1012.25 1012.25 1012.37 1012.65 1012.93 1013.09 1013.25 1013.41 1013.77 1014.05 1014.29 1014.53 1014.73 1014.97 1015.21 1015.41 1015.65 1015.81 1015.97 1016.13 1016.29 1016.49 1016.65 1016.81 1016.97 1017.17 1017.37 1017.57 1017.81 1018.01 1018.25 1018.41 1018.53 1018.53 1018.53 1018.49 1018.53 1018.49 1018.49 1018.53 1018.53 1018.49 1018.45 1018.45 1018.45 1018.45 1018.45 1018.45 1018.45 1018.37 1018.33 1018.29 1018.25 1018.21 1018.13 1018.05 1017.97 1017.93 1017.85 1017.81 1017.69 1017.61 1017.53 1017.53 1017.41
1012.45 1012.37 1012.37 1012.37 1012.45 1012.49 1012.53 1012.73 1012.97 1013.21 1013.37 1013.61 1013.93 1014.21 1014.45 1014.69 1014.85 1015.09 1015.33 1015.57 1015.77 1015.93 1016.05 1016.21 1016.33 1016.53 1016.77 1016.97 1017.13 1017.37 1017.57 1017.77 1017.97 1018.17 1018.33 1018.49 1018.49 1018.41 1018.37 1018.37 1018.37 1018.37 1018.37 1018.37 1018.33 1018.29 1018.29 1018.29 1018.29 1018.29 1018.29 1018.29 1018.25 1018.21 1018.13 1018.09 1018.09 1018.05 1017.97 1017.93 1017.81 1017.77 1017.69 1017.65 1017.57 1017.49 1017.41 1017.37 1017.29
1012.49 1012.53 1012.53 1012.49 1012.53 1012.69 1012.81 1012.93 1013.13 1013.37 1013.57 1013.81 1014.09 1014.37 1014.61 1014.81 1014.97 1015.21 1015.41 1015.61 1015.77 1015.93 1016.05 1016.25 1016.41 1016.69 1016.89 1017.13 1017.37 1017.53 1017.77 1017.97 1018.17 1018.33 1018.37 1018.37 1018.33 1018.25 1018.21 1018.17 1018.13 1018.17 1018.17 1018.13 1018.09 1018.09 1018.09 1018.09 1018.13 1018.13 1018.09 1018.09 1018.05 1017.97 1017.93 1017.93 1017.93 1017.89 1017.85 1017.77 1017.65 1017.57 1017.53 1017.49 1017.37 1017.33 1017.29 1017.25 1017.25
1012.53 1012.61 1012.69 1012.65 1012.69 1012.81 1012.97 1013.09 1013.25 1013.49 1013.77 1014.01 1014.25 1014.53 1014.69 1014.85 1015.09 1015.25 1015.45 1015.65 1015.81 1015.97 1016.13 1016.33 1016.61 1016.85 1017.09 1017.37 1017.57 1017.81 1017.97 1018.13 1018.25 1018.33 1018.33 1018.25 1018.13 1018.09 1018.01 1017.97 1017.97 1017.97 1017.97 1017.97 1017.93 1017.93 1017.93 1017.93 1017.97 1017.97 1017.93 1017.89 1017.85 1017.81 1017.73 1017.73 1017.69 1017.69 1017.69 1017.61 1017.49 1017.41 1017.37 1017.29 1017.25 1017.21 1017.17 1017.13 1017.09
1012.73 1012.81 1012.81 1012.89 1012.97 1013.09 1013.17 1013.29 1013.45 1013.65 1013.93 1014.17 1014.41 1014.61 1014.81 1014.97 1015.13 1015.33 1015.53 1015.77 1015.93 1016.05 1016.25 1016.49 1016.77 1017.05 1017.29 1017.53 1017.73 1017.93 1018.09 1018.17 1018.21 1018.17 1018.09 1018.01 1017.93 1017.89 1017.81 1017.81 1017.81 1017.77 1017.73 1017.73 1017.73 1017.73 1017.73 1017.77 1017.73 1017.73 1017.73 1017.69 1017.65 1017.65 1017.61 1017.57 1017.57 1017.57 1017.53 1017.45 1017.37 1017.29 1017.21 1017.17 1017.13 1017.09 1017.09 1017.01 1016.97
1013.01 1013.05 1013.09 1013.13 1013.25 1013.37 1013.49 1013.57 1013.73 1013.89 1014.13 1014.37 1014.61 1014.81 1014.97 1015.13 1015.29 1015.45 1015.65 1015.85 1016.05 1016.21 1016.37 1016.65 1016.89 1017.17 1017.41 1017.65 1017.81 1017.97 1018.05 1018.09 1018.05 1017.97 1017.81 1017.73 1017.65 1017.65 1017.61 1017.57 1017.57 1017.57 1017.57 1017.53 1017.57 1017.61 1017.65 1017.65 1017.65 1017.61 1017.57 1017.57 1017.53 1017.53 1017.49 1017.45 1017.45 1017.45 1017.37 1017.29 1017.25 1017.17 1017.09 1017.05 1017.01 1016.97 1016.93 1016.89 1016.85
1013.25 1013.37 1013.37 1013.41 1013.53 1013.65 1013.81 1013.93 1014.05 1014.25 1014.41 1014.61 1014.81 1014.97 1015.13 1015.29 1015.45 1015.61 1015.77 1015.93 1016.13 1016.33 1016.53 1016.69 1016.97 1017.21 1017.41 1017.57 1017.73 1017.81 1017.85 1017.81 1017.73 1017.65 1017.53 1017.49 1017.45 1017.41 1017.41 1017.41 1017.45 1017.45 1017.45 1017.45 1017.45 1017.49 1017.53 1017.53 1017.53 1017.53 1017.45 1017.37 1017.37 1017.37 1017.33 1017.33 1017.29 1017.29 1017.21 1017.09 1017.09 1017.05 1016.97 1016.93 1016.85 1016.81 1016.81 1016.73 1016.69
1013.53 1013.61 1013.69 1013.77 1013.85 1013.97 1014.09 1014.25 1014.37 1014.53 1014.69 1014.85 1015.05 1015.17 1015.29 1015.41 1015.57 1015.65 1015.81 1015.97 1016.17 1016.37 1016.53 1016.69 1016.97 1017.17 1017.37 1017.49 1017.61 1017.65 1017.61 1017.53 1017.45 1017.37 1017.33 1017.29 1017.29 1017.29 1017.29 1017.33 1017.29 1017.29 1017.29 1017.29 1017.29 1017.33 1017.33 1017.33 1017.33 1017.33 1017.29 1017.25 1017.25 1017.21 1017.17 1017.13 1017.13 1017.09 1017.01 1016.93 1016.89 1016.85 1016.81 1016.73 1016.69 1016.65 1016.61 1016.53 1016.53
1013.69 1013.81 1013.97 1014.01 1014.09 1014.17 1014.29 1014.49 1014.65 1014.77 1014.89 1015.05 1015.17 1015.29 1015.41 1015.53 1015.57 1015.65 1015.81 1015.97 1016.17 1016.37 1016.53 1016.69 1016.85 1017.09 1017.25 1017.33 1017.41 1017.37 1017.33 1017.25 1017.21 1017.17 1017.17 1017.13 1017.13 1017.13 1017.17 1017.17 1017.13 1017.13 1017.13 1017.13 1017.13 1017.13 1017.13 1017.13 1017.13 1017.13 1017.13 1017.09 1017.05 1017.01 1016.97 1016.97 1016.97 1016.93 1016.81 1016.81 1016.73 1016.69 1016.65 1016.57 1016.53 1016.45 1016.41 1016.41 1016.37
1013.85 1013.97 1014.09 1014.17 1014.25 1014.37 1014.49 1014.65 1014.81 1014.89 1015.01 1015.13 1015.25 1015.37 1015.41 1015.49 1015.57 1015.65 1015.81 1015.97 1016.17 1016.29 1016.45 1016.57 1016.77 1016.97 1017.09 1017.17 1017.17 1017.13 1017.09 1017.05 1017.05 1017.01 1017.01 1016.97 1016.97 1017.01 1017.01 1016.97 1016.97 1016.97 1016.97 1016.97 1016.97 1016.97 1016.97 1017.01 1017.01 1017.01 1016.97 1016.97 1016.89 1016.81 1016.81 1016.81 1016.77 1016.73 1016.69 1016.69 1016.61 1016.53 1016.49 1016.41 1016.37 1016.33 1016.29 1016.25 1016.25
1013.97 1014.09 1014.17 1014.25 1014.37 1014.49 1014.65 1014.73 1014.85 1014.97 1015.09 1015.17 1015.25 1015.33 1015.37 1015.49 1015.61 1015.69 1015.81 1015.97 1016.13 1016.25 1016.41 1016.61 1016.77 1016.85 1016.93 1016.97 1016.93 1016.89 1016.89 1016.89 1016.89 1016.89 1016.89 1016.89 1016.89 1016.89 1016.89 1016.85 1016.81 1016.81 1016.81 1016.81 1016.81 1016.81 1016.81 1016.81 1016.81 1016.81 1016.81 1016.73 1016.69 1016.65 1016.57 1016.57 1016.57 1016.53 1016.53 1016.45 1016.41 1016.37 1016.33 1016.25 1016.21 1016.17 1016.17 1016.13 1016.09
1014.09 1014.17 1014.25 1014.37 1014.49 1014.61 1014.73 1014.81 1014.89 1015.01 1015.13 1015.25 1015.29 1015.33 1015.37 1015.53 1015.65 1015.77 1015.85 1016.01 1016.13 1016.29 1016.45 1016.61 1016.73 1016.77 1016.77 1016.77 1016.77 1016.77 1016.77 1016.77 1016.77 1016.81 1016.81 1016.77 1016.77 1016.73 1016.69 1016.73 1016.69 1016.69 1016.69 1016.69 1016.69 1016.69 1016.65 1016.65 1016.65 1016.61 1016.57 1016.53 1016.49 1016.45 1016.41 1016.37 1016.37 1016.33 1016.29 1016.25 1016.25 1016.17 1016.09 1016.05 1016.05 1016.01 1015.97 1015.97 1015.93
1014.21 1014.29 1014.37 1014.45 1014.61 1014.69 1014.81 1014.93 1014.97 1015.09 1015.17 1015.25 1015.33 1015.37 1015.45 1015.57 1015.65 1015.77 1015.89 1016.01 1016.17 1016.33 1016.49 1016.57 1016.65 1016.65 1016.65 1016.65 1016.65 1016.65 1016.65 1016.65 1016.65 1016.65 1016.65 1016.61 1016.57 1016.57 1016.57 1016.53 1016.53 1016.53 1016.53 1016.53 1016.53 1016.53 1016.49 1016.45 1016.41 1016.37 1016.37 1016.37 1016.33 1016.29 1016.25 1016.21 1016.21 1016.17 1016.09 1016.09 1016.01 1015.97 1015.93 1015.89 1015.85 1015.81 1015.77 1015.73 1015.69
1014.29 1014.41 1014.53 1014.57 1014.69 1014.81 1014.89 1014.97 1015.01 1015.09 1015.17 1015.25 1015.29 1015.37 1015.49 1015.57 1015.65 1015.73 1015.85 1016.01 1016.21 1016.33 1016.41 1016.49 1016.53 1016.53 1016.53 1016.53 1016.49 1016.49 1016.49 1016.45 1016.49 1016.49 1016.49 1016.45 1016.41 1016.41 1016.37 1016.37 1016.37 1016.37 1016.37 1016.37 1016.37 1016.37 1016.33 1016.25 1016.21 1016.17 1016.17 1016.17 1016.09 1016.09 1016.05 1016.01 1015.97 1015.97 1015.93 1015.85 1015.81 1015.73 1015.69 1015.65 1015.61 1015.61 1015.57 1015.53 1015.49
1014.37 1014.53 1014.61 1014.69 1014.77 1014.81 1014.89 1014.97 1014.97 1015.09 1015.13 1015.21 1015.25 1015.37 1015.49 1015.53 1015.65 1015.73 1015.85 1015.97 1016.09 1016.21 1016.25 1016.33 1016.37 1016.37 1016.37 1016.37 1016.37 1016.37 1016.37 1016.33 1016.33 1016.33 1016.29 1016.29 1016.25 1016.25 1016.25 1016.25 1016.25 1016.25 1016.25 1016.25 1016.21 1016.17 1016.09 1016.09 1016.01 1015.97 1015.97 1015.97 1015.93 1015.85 1015.81 1015.81 1015.77 1015.69 1015.65 1015.61 1015.53 1015.53 1015.45 1015.41 1015.37 1015.33 1015.29 1015.25 1015.25
1014.45 1014.53 1014.65 1014.69 1014.73 1014.81 1014.89 1014.97 1014.97 1015.05 1015.09 1015.21 1015.29 1015.37 1015.45 1015.53 1015.65 1015.73 1015.81 1015.93 1016.01 1016.09 1016.13 1016.21 1016.21 1016.25 1016.25 1016.25 1016.25 1016.25 1016.21 1016.21 1016.21 1016.21 1016.17 1016.13 1016.13 1016.09 1016.09 1016.09 1016.09 1016.09 1016.05 1016.01 1015.97 1015.97 1015.89 1015.85 1015.81 1015.81 1015.81 1015.73 1015.69 1015.65 1015.61 1015.53 1015.53 1015.45 1015.37 1015.37 1015.29 1015.25 1015.21 1015.17 1015.09 1015.09 1015.01 1014.97 1014.97
1014.41 1014.53 1014.65 1014.69 1014.77 1014.85 1014.93 1014.97 1015.05 1015.09 1015.21 1015.29 1015.37 1015.45 1015.49 1015.53 1015.61 1015.69 1015.81 1015.89 1015.97 1016.01 1016.09 1016.09 1016.13 1016.13 1016.13 1016.13 1016.13 1016.09 1016.09 1016.05 1016.09 1016.09 1016.09 1016.01 1016.01 1015.97 1015.97 1015.97 1015.93 1015.89 1015.85 1015.81 1015.81 1015.81 1015.73 1015.65 1015.65 1015.61 1015.57 1015.53 1015.53 1015.45 1015.37 1015.33 1015.29 1015.25 1015.17 1015.09 1015.05 1014.97 1014.97 1014.89 1014.85 1014.81 1014.77 1014.69 1014.65
1014.45 1014.53 1014.65 1014.73 1014.81 1014.85 1014.93 1014.97 1015.09 1015.17 1015.25 1015.33 1015.37 1015.41 1015.49 1015.53 1015.65 1015.77 1015.81 1015.89 1015.97 1015.97 1015.97 1015.97 1015.97 1015.97 1016.01 1016.05 1016.05 1016.05 1016.05 1016.05 1016.01 1015.97 1015.97 1015.93 1015.89 1015.81 1015.81 1015.77 1015.77 1015.77 1015.69 1015.65 1015.65 1015.61 1015.53 1015.49 1015.41 1015.37 1015.37 1015.33 1015.25 1015.25 1015.17 1015.09 1015.05 1014.97 1014.93 1014.85 1014.81 1014.73 1014.69 1014.61 1014.57 1014.53 1014.49 1014.41 1014.37
1014.53 1014.61 1014.69 1014.77 1014.81 1014.89 1014.97 1015.05 1015.17 1015.25 1015.37 1015.37 1015.45 1015.53 1015.65 1015.77 1015.85 1015.93 1015.93 1015.93 1015.89 1015.89 1015.89 1015.89 1015.89 1015.89 1015.89 1015.93 1015.97 1016.01 1016.01 1015.97 1015.89 1015.85 1015.81 1015.81 1015.73 1015.65 1015.61 1015.57 1015.61 1015.61 1015.57 1015.53 1015.45 1015.41 1015.37 1015.29 1015.25 1015.17 1015.13 1015.09 1015.01 1014.97 1014.89 1014.85 1014.81 1014.77 1014.69 1014.65 1014.57 1014.53 1014.45 1014.37 1014.33 1014.29 1014.25 1014.21 1014.17
1014.57 1014.65 1014.69 1014.81 1014.89 1015.01 1015.13 1015.25 1015.37 1015.49 1015.53 1015.61 1015.65 1015.77 1015.89 1016.01 1016.05 1015.97 1015.93 1015.85 1015.81 1015.81 1015.81 1015.81 1015.81 1015.81 1015.81 1015.85 1015.93 1015.97 1015.89 1015.85 1015.81 1015.73 1015.65 1015.65 1015.57 1015.53 1015.53 1015.49 1015.45 1015.41 1015.37 1015.33 1015.25 1015.25 1015.17 1015.09 1015.05 1014.97 1014.93 1014.85 1014.81 1014.73 1014.69 1014.65 1014.65 1014.61 1014.53 1014.49 1014.41 1014.33 1014.25 1014.21 1014.13 1014.09 1014.05 1014.01 1013.97
1014.57 1014.69 1014.81 1014.97 1015.17 1015.37 1015.53 1015.57 1015.65 1015.73 1015.81 1015.89 1015.97 1016.09 1016.13 1016.13 1016.05 1015.97 1015.89 1015.81 1015.81 1015.77 1015.77 1015.73 1015.73 1015.73 1015.77 1015.81 1015.81 1015.81 1015.73 1015.69 1015.69 1015.65 1015.57 1015.53 1015.49 1015.45 1015.41 1015.37 1015.29 1015.25 1015.21 1015.13 1015.05 1014.97 1014.93 1014.89 1014.81 1014.77 1014.69 1014.69 1014.61 1014.57 1014.53 1014.53 1014.53 1014.45 1014.41 1014.37 1014.33 1014.25 1014.13 1014.09 1014.01 1013.97 1013.93 1013.85 1013.81
1014.69 1014.85 1015.09 1015.33 1015.49 1015.61 1015.73 1015.81 1015.85 1015.93 1015.97 1016.05 1016.09 1016.09 1016.09 1016.01 1015.93 1015.85 1015.81 1015.77 1015.69 1015.65 1015.65 1015.65 1015.69 1015.77 1015.81 1015.73 1015.69 1015.65 1015.61 1015.57 1015.53 1015.53 1015.49 1015.45 1015.37 1015.33 1015.29 1015.25 1015.17 1015.09 1015.05 1014.97 1014.85 1014.81 1014.73 1014.69 1014.65 1014.61 1014.57 1014.53 1014.53 1014.49 1014.49 1014.45 1014.37 1014.37 1014.33 1014.29 1014.25 1014.17 1014.09 1014.05 1013.93 1013.85 1013.81 1013.81 1013.77
1014.81 1014.97 1015.17 1015.33 1015.45 1015.53 1015.61 1015.65 1015.77 1015.81 1015.85 1015.89 1015.89 1015.89 1015.85 1015.77 1015.73 1015.65 1015.65 1015.65 1015.61 1015.61 1015.61 1015.65 1015.73 1015.77 1015.69 1015.65 1015.57 1015.53 1015.53 1015.45 1015.37 1015.37 1015.37 1015.33 1015.29 1015.25 1015.21 1015.09 1015.05 1014.97 1014.93 1014.81 1014.73 1014.69 1014.61 1014.53 1014.49 1014.41 1014.41 1014.45 1014.41 1014.37 1014.37 1014.37 1014.29 1014.25 1014.25 1014.25 1014.17 1014.09 1014.05 1013.97 1013.85 1013.77 1013.69 1013.65 1013.57
1014.85 1014.97 1015.09 1015.21 1015.25 1015.29 1015.37 1015.41 1015.53 1015.57 1015.61 1015.65 1015.65 1015.65 1015.61 1015.53 1015.49 1015.49 1015.49 1015.49 1015.49 1015.53 1015.57 1015.65 1015.65 1015.61 1015.53 1015.53 1015.49 1015.45 1015.41 1015.37 1015.33 1015.25 1015.21 1015.21 1015.17 1015.13 1015.05 1014.97 1014.93 1014.81 1014.73 1014.69 1014.61 1014.53 1014.49 1014.37 1014.33 1014.25 1014.25 1014.25 1014.25 1014.25 1014.25 1014.25 1014.25 1014.21 1014.17 1014.13 1014.09 1013.97 1013.93 1013.81 1013.69 1013.61 1013.53 1013.45 1013.37
1014.93 1014.97 1015.09 1015.17 1015.21 1015.25 1015.25 1015.37 1015.37 1015.41 1015.45 1015.45 1015.45 1015.41 1015.37 1015.37 1015.33 1015.33 1015.37 1015.37 1015.41 1015.53 1015.57 1015.61 1015.53 1015.41 1015.41 1015.41 1015.37 1015.37 1015.29 1015.25 1015.21 1015.17 1015.09 1015.09 1015.05 1014.97 1014.93 1014.85 1014.77 1014.69 1014.61 1014.53 1014.45 1014.37 1014.29 1014.25 1014.13 1014.09 1014.01 1014.01 1014.09 1014.17 1014.17 1014.17 1014.13 1014.09 1014.05 1013.97 1013.89 1013.81 1013.77 1013.65 1013.53 1013.45 1013.37 1013.37 1013.25
1014.97 1015.01 1015.05 1015.09 1015.09 1015.13 1015.21 1015.25 1015.25 1015.25 1015.25 1015.25 1015.25 1015.25 1015.25 1015.21 1015.25 1015.25 1015.25 1015.37 1015.41 1015.45 1015.45 1015.37 1015.37 1015.33 1015.33 1015.29 1015.25 1015.25 1015.21 1015.13 1015.05 1015.01 1015.05 1015.05 1014.97 1014.93 1014.81 1014.69 1014.65 1014.57 1014.45 1014.37 1014.29 1014.21 1014.13 1014.05 1013.97 1013.93 1013.85 1013.89 1013.97 1014.01 1014.01 1013.97 1013.97 1013.97 1013.89 1013.77 1013.65 1013.61 1013.53 1013.41 1013.37 1013.29 1013.25 1013.21 1013.13
1014.93 1014.97 1014.97 1015.05 1015.05 1015.09 1015.09 1015.09 1015.05 1015.05 1015.05 1015.01 1015.01 1015.05 1015.09 1015.09 1015.13 1015.21 1015.25 1015.29 1015.37 1015.33 1015.25 1015.21 1015.21 1015.21 1015.21 1015.13 1015.13 1015.13 1015.09 1015.01 1014.97 1014.97 1014.93 1014.93 1014.85 1014.77 1014.69 1014.57 1014.53 1014.41 1014.33 1014.25 1014.13 1014.09 1013.97 1013.89 1013.81 1013.81 1013.77 1013.77 1013.81 1013.85 1013.85 1013.81 1013.81 1013.77 1013.69 1013.57 1013.49 1013.41 1013.37 1013.25 1013.21 1013.13 1013.09 1013.01 1012.97
1014.89 1014.93 1014.97 1014.97 1015.01 1014.97 1014.97 1014.93 1014.93 1014.93 1014.89 1014.89 1014.93 1014.97 1014.97 1015.05 1015.09 1015.13 1015.13 1015.13 1015.21 1015.17 1015.13 1015.09 1015.09 1015.09 1015.09 1015.09 1015.09 1015.05 1015.01 1014.97 1014.93 1014.85 1014.81 1014.81 1014.73 1014.65 1014.53 1014.49 1014.41 1014.33 1014.25 1014.09 1013.97 1013.89 1013.81 1013.77 1013.73 1013.69 1013.69 1013.65 1013.69 1013.73 1013.73 1013.69 1013.65 1013.61 1013.53 1013.37 1013.29 1013.25 1013.17 1013.09 1013.01 1012.93 1012.81 1012.77 1012.69
1014.81 1014.85 1014.93 1014.93 1014.97 1014.97 1014.89 1014.85 1014.85 1014.89 1014.93 1014.93 1014.93 1014.97 1014.97 1015.05 1015.09 1015.09 1015.09 1015.05 1015.09 1015.09 1015.05 1015.05 1015.05 1015.09 1015.09 1015.05 1015.01 1014.97 1014.93 1014.89 1014.81 1014.73 1014.69 1014.65 1014.57 1014.53 1014.45 1014.37 1014.25 1014.17 1014.05 1013.97 1013.85 1013.81 1013.73 1013.65 1013.65 1013.65 1013.57 1013.53 1013.57 1013.57 1013.53 1013.53 1013.45 1013.37 1013.25 1013.17 1013.05 1012.97 1012.93 1012.81 1012.73 1012.65 1012.53 1012.41 1012.37
1014.77 1014.81 1014.81 1014.85 1014.89 1014.89 1014.85 1014.81 1014.85 1014.89 1014.93 1014.97 1014.97 1015.01 1015.05 1015.09 1015.05 1015.05 1015.05 1014.97 1014.97 1014.97 1014.97 1014.97 1014.97 1014.97 1014.97 1014.97 1014.93 1014.89 1014.81 1014.77 1014.69 1014.61 1014.53 1014.53 1014.49 1014.41 1014.33 1014.25 1014.09 1013.97 1013.89 1013.81 1013.77 1013.69 1013.65 1013.61 1013.57 1013.53 1013.45 1013.41 1013.41 1013.41 1013.37 1013.29 1013.25 1013.13 1013.05 1012.97 1012.81 1012.69 1012.61 1012.53 1012.41 1012.29 1012.17 1012.09 1012.01
1014.65 1014.69 1014.73 1014.73 1014.73 1014.77 1014.81 1014.81 1014.85 1014.97 1015.01 1015.09 1015.09 1015.09 1015.05 1015.01 1014.97 1014.97 1014.93 1014.89 1014.89 1014.93 1014.93 1014.93 1014.93 1014.93 1014.85 1014.81 1014.81 1014.81 1014.73 1014.69 1014.61 1014.53 1014.45 1014.41 1014.37 1014.37 1014.25 1014.09 1013.97 1013.81 1013.77 1013.69 1013.65 1013.61 1013.57 1013.53 1013.45 1013.37 1013.33 1013.29 1013.29 1013.25 1013.17 1013.09 1013.01 1012.89 1012.77 1012.65 1012.53 1012.37 1012.25 1012.17 1012.09 1011.97 1011.85 1011.73 1011.65
1014.37 1014.49 1014.61 1014.69 1014.69 1014.73 1014.81 1014.81 1014.89 1014.97 1015.01 1015.05 1015.09 1015.09 1015.01 1014.97 1014.93 1014.93 1014.85 1014.85 1014.89 1014.93 1014.93 1014.93 1014.89 1014.85 1014.81 1014.81 1014.73 1014.69 1014.65 1014.61 1014.53 1014.45 1014.37 1014.33 1014.29 1014.25 1014.13 1014.01 1013.89 1013.77 1013.69 1013.65 1013.57 1013.53 1013.49 1013.37 1013.33 1013.25 1013.21 1013.13 1013.13 1013.09 1012.97 1012.85 1012.77 1012.65 1012.53 1012.37 1012.25 1012.09 1011.93 1011.81 1011.65 1011.57 1011.49 1011.37 1011.29
1014.21 1014.37 1014.53 1014.69 1014.77 1014.81 1014.89 1014.89 1014.97 1014.97 1015.01 1015.01 1015.05 1015.01 1014.97 1014.97 1014.93 1014.85 1014.85 1014.89 1014.93 1014.97 1014.97 1014.93 1014.89 1014.85 1014.81 1014.77 1014.69 1014.61 1014.53 1014.49 1014.41 1014.37 1014.29 1014.25 1014.17 1014.09 1014.05 1013.93 1013.81 1013.77 1013.65 1013.57 1013.49 1013.41 1013.33 1013.25 1013.21 1013.09 1013.01 1012.97 1012.89 1012.81 1012.73 1012.61 1012.49 1012.37 1012.21 1012.09 1011.93 1011.73 1011.57 1011.45 1011.29 1011.17 1011.09 1010.97 1010.89
1014.37 1014.45 1014.57 1014.69 1014.81 1014.89 1014.93 1014.97 1015.01 1015.01 1015.01 1014.97 1014.97 1014.93 1014.89 1014.93 1014.89 1014.85 1014.85 1014.85 1014.89 1014.97 1014.97 1014.89 1014.85 1014.81 1014.73 1014.65 1014.61 1014.53 1014.41 1014.37 1014.33 1014.29 1014.25 1014.13 1014.05 1014.01 1013.97 1013.85 1013.77 1013.69 1013.61 1013.53 1013.41 1013.29 1013.21 1013.09 1013.05 1012.93 1012.85 1012.81 1012.73 1012.61 1012.49 1012.37 1012.25 1012.09 1011.89 1011.73 1011.53 1011.33 1011.17 1011.05 1010.93 1010.81 1010.69 1010.61 1010.53
1014.41 1014.49 1014.57 1014.73 1014.81 1014.93 1014.97 1014.97 1014.97 1014.97 1014.97 1014.93 1014.93 1014.89 1014.89 1014.89 1014.85 1014.81 1014.81 1014.81 1014.81 1014.89 1014.93 1014.85 1014.81 1014.69 1014.61 1014.53 1014.53 1014.41 1014.33 1014.25 1014.17 1014.13 1014.09 1014.01 1013.97 1013.89 1013.85 1013.81 1013.69 1013.61 1013.53 1013.37 1013.29 1013.17 1013.09 1012.97 1012.89 1012.77 1012.69 1012.61 1012.53 1012.37 1012.25 1012.09 1011.97 1011.77 1011.61 1011.37 1011.21 1010.97 1010.77 1010.65 1010.57 1010.53 1010.41 1010.37 1010.33
1014.45 1014.53 1014.61 1014.73 1014.81 1014.85 1014.89 1014.89 1014.89 1014.85 1014.85 1014.89 1014.89 1014.89 1014.89 1014.85 1014.81 1014.77 1014.77 1014.77 1014.77 1014.81 1014.81 1014.81 1014.73 1014.61 1014.49 1014.45 1014.41 1014.37 1014.25 1014.13 1014.05 1013.97 1013.97 1013.89 1013.81 1013.77 1013.73 1013.73 1013.65 1013.53 1013.41 1013.29 1013.17 1013.09 1012.97 1012.85 1012.73 1012.61 1012.49 1012.41 1012.29 1012.17 1012.01 1011.85 1011.65 1011.53 1011.33 1011.09 1010.89 1010.69 1010.53 1010.41 1010.41 1010.37 1010.37 1010.33 1010.25
1014.53 1014.61 1014.69 1014.73 1014.77 1014.77 1014.81 1014.81 1014.81 1014.81 1014.81 1014.81 1014.85 1014.85 1014.81 1014.81 1014.77 1014.73 1014.73 1014.77 1014.77 1014.73 1014.69 1014.69 1014.61 1014.53 1014.41 1014.37 1014.33 1014.25 1014.21 1014.09 1013.97 1013.89 1013.85 1013.81 1013.81 1013.69 1013.65 1013.65 1013.57 1013.49 1013.33 1013.21 1013.09 1012.97 1012.85 1012.73 1012.61 1012.49 1012.37 1012.25 1012.13 1011.97 1011.81 1011.65 1011.49 1011.25 1011.09 1010.89 1010.73 1010.65 1010.53 1010.45 1010.41 1010.37 1010.29 1010.25 1010.17
Thickness
5540 5538 5535 5532 5530 5527 5525 5522 5519 5516 5513 5509 5505 5500 5495 5490 5485 5480 5477 5473 5469 5465 5461 5456 5452 5447 5444 5440 5437 5434 5431 5429 5425 5422 5419 5416 5412 5409 5406 5403 5400 5398 5396 5394 5393 5392 5391 5389 5388 5387 5387 5386 5385 5384 5384 5383 5382 5381 5380 5381 5380 5381 5381 5381 5381 5381 5381 5381 5381
5538 5535 5533 5530 5527 5524 5521 5517 5514 5511 5508 5505 5500 5496 5492 5486 5480 5475 5471 5467 5464 5460 5455 5451 5447 5443 5439 5436 5432 5429 5426 5424 5420 5417 5414 5410 5407 5404 5400 5398 5395 5393 5392 5390 5389 5387 5386 5385 5384 5384 5383 5382 5381 5380 5379 5379 5378 5377 5376 5376 5376 5377 5377 5377 5377 5377 5377 5377 5377
5535 5533 5530 5527 5523 5519 5515 5511 5508 5505 5502 5499 5494 5490 5486 5480 5475 5470 5465 5461 5457 5453 5449 5446 5441 5438 5434 5431 5427 5424 5421 5419 5416 5412 5408 5405 5401 5398 5395 5393 5391 5389 5388 5386 5385 5384 5382 5381 5380 5379 5379 5378 5377 5376 5375 5375 5374 5372 5372 5372 5373 5373 5373 5372 5373 5373 5373 5372 5373
5532 5529 5527 5523 5519 5515 5511 5506 5502 5499 5495 5491 5487 5482 5479 5474 5469 5464 5459 5455 5451 5447 5443 5439 5435 5432 5428 5425 5422 5419 5416 5414 5410 5407 5403 5400 5396 5393 5391 5389 5387 5386 5384 5383 5381 5380 5379 5378 5377 5376 5375 5374 5372 5372 5371 5371 5370 5369 5369 5369 5369 5368 5368 5368 5369 5368 5368 5368 5368
5527 5525 5523 5519 5516 5512 5508 5502 5497 5492 5489 5484 5479 5475 5471 5467 5462 5458 5453 5448 5444 5440 5437 5433 5430 5426 5423 5419 5417 5414 5411 5408 5405 5401 5398 5394 5391 5389 5387 5386 5384 5382 5381 5379 5378 5376 5375 5374 5373 5372 5371 5370 5369 5368 5368 5367 5366 5365 5366 5366 5365 5365 5364 5364 5364 5364 5364 5364 5364
5522 5520 5517 5514 5510 5507 5503 5496 5491 5487 5482 5478 5473 5468 5464 5460 5456 5451 5447 5442 5438 5435 5431 5428 5424 5420 5417 5414 5411 5408 5406 5402 5399 5396 5392 5389 5387 5385 5384 5382 5380 5379 5377 5376 5374 5373 5372 5370 5369 5368 5367 5366 5365 5365 5364 5363 5362 5361 5361 5361 5361 5361 5360 5360 5359 5359 5359 5359 5359
5517 5514 5511 5508 5505 5501 5496 5491 5486 5480 5476 5471 5466 5462 5457 5453 5449 5445 5441 5437 5433 5429 5426 5422 5418 5415 5411 5408 5406 5403 5400 5397 5393 5390 5387 5385 5383 5382 5381 5379 5377 5375 5374 5372 5371 5369 5368 5367 5366 5364 5363 5363 5362 5361 5361 5360 5358 5358 5358 5357 5358 5357 5356 5355 5356 5356 5355 5354 5354
5512 5508 5505 5502 5498 5495 5490 5486 5481 5476 5470 5465 5460 5455 5451 5447 5444 5439 5435 5431 5427 5424 5420 5417 5412 5409 5406 5403 5400 5397 5394 5391 5388 5385 5383 5381 5380 5379 5377 5376 5374 5372 5371 5369 5368 5366 5365 5363 5362 5361 5360 5359 5359 5358 5358 5357 5355 5354 5354 5354 5354 5354 5353 5352 5352 5351 5351 5350 5350
5503 5501 5498 5495 5492 5488 5484 5480 5475 5470 5465 5459 5454 5450 5446 5442 5438 5433 5429 5425 5422 5418 5414 5410 5406 5403 5401 5398 5395 5392 5389 5386 5383 5381 5379 5378 5377 5375 5374 5373 5371 5369 5368 5366 5364 5363 5361 5360 5359 5358 5357 5356 5355 5354 5354 5353 5351 5351 5350 5350 5350 5350 5350 5349 5348 5347 5347 5346 5345
5495 5493 5490 5487 5484 5480 5477 5472 5468 5463 5459 5453 5448 5444 5440 5436 5432 5428 5424 5420 5417 5413 5409 5405 5401 5398 5395 5393 5389 5387 5384 5382 5380 5378 5376 5375 5374 5373 5371 5369 5367 5365 5364 5363 5361 5359 5357 5356 5355 5354 5353 5352 5351 5350 5349 5349 5348 5347 5346 5347 5346 5346 5345 5345 5344 5343 5342 5342 5342
5488 5485 5482 5479 5476 5472 5469 5465 5460 5456 5451 5446 5441 5438 5434 5430 5426 5422 5418 5415 5411 5407 5403 5400 5397 5393 5391 5388 5386 5383 5381 5378 5377 5376 5374 5373 5371 5370 5368 5366 5364 5362 5360 5359 5357 5355 5353 5352 5351 5350 5349 5348 5347 5346 5345 5344 5343 5343 5342 5342 5342 5341 5340 5340 5340 5339 5338 5337 5337
5481 5478 5475 5472 5468 5464 5461 5457 5452 5448 5444 5439 5435 5431 5427 5424 5420 5417 5414 5410 5406 5402 5399 5396 5393 5389 5386 5383 5381 5379 5377 5375 5374 5373 5371 5370 5367 5366 5364 5361 5360 5358 5356 5355 5353 5351 5350 5348 5347 5346 5345 5344 5343 5342 5341 5340 5339 5339 5338 5338 5337 5336 5336 5336 5335 5334 5333 5333 5333
5476 5472 5468 5465 5461 5457 5453 5449 5445 5441 5436 5433 5429 5425 5422 5418 5415 5412 5408 5405 5401 5398 5395 5392 5389 5385 5382 5379 5376 5375 5374 5372 5371 5369 5367 5366 5363 5362 5359 5358 5356 5354 5353 5352 5350 5348 5347 5345 5343 5342 5341 5340 5339 5338 5337 5336 5335 5334 5334 5333 5332 5332 5331 5331 5330 5329 5328 5327 5327
5470 5467 5462 5458 5455 5451 5447 5442 5438 5434 5430 5427 5423 5420 5417 5413 5410 5407 5404 5401 5397 5394 5391 5387 5384 5381 5378 5375 5373 5371 5370 5369 5367 5365 5364 5362 5360 5358 5356 5354 5352 5351 5349 5348 5346 5344 5343 5341 5340 5339 5337 5336 5335 5334 5333 5332 5331 5330 5329 5328 5327 5327 5327 5326 5325 5324 5323 5322 5322
5464 5461 5457 5453 5449 5445 5440 5436 5432 5428 5425 5421 5418 5415 5412 5408 5405 5402 5399 5396 5392 5389 5386 5382 5379 5376 5373 5371 5369 5368 5366 5365 5363 5361 5359 5358 5356 5354 5352 5351 5349 5348 5346 5344 5343 5341 5340 5338 5336 5335 5334 5332 5331 5331 5329 5328 5327 5326 5325 5324 5323 5323 5322 5321 5320 5319 5318 5316 5316
5459 5455 5452 5448 5443 5439 5434 5430 5427 5423 5419 5416 5412 5409 5406 5403 5399 5397 5394 5391 5387 5383 5380 5377 5374 5371 5369 5367 5366 5364 5362 5360 5359 5357 5356 5354 5352 5351 5349 5347 5346 5344 5342 5340 5339 5338 5336 5334 5332 5331 5330 5329 5328 5326 5326 5325 5323 5322 5321 5320 5319 5318 5317 5317 5315 5314 5313 5312 5311
5453 5449 5446 5442 5438 5434 5429 5425 5421 5418 5414 5411 5407 5404 5400 5397 5394 5392 5388 5385 5381 5378 5374 5372 5369 5367 5365 5363 5361 5360 5358 5356 5355 5353 5352 5351 5349 5347 5346 5344 5342 5341 5339 5337 5335 5334 5332 5331 5329 5328 5326 5325 5323 5322 5322 5320 5319 5318 5317 5316 5315 5314 5313 5312 5310 5309 5309 5307 5306
5445 5443 5439 5436 5431 5428 5424 5420 5416 5413 5409 5406 5402 5399 5395 5392 5389 5386 5383 5380 5377 5373 5370 5367 5365 5363 5362 5360 5358 5357 5355 5353 5352 5350 5348 5347 5345 5344 5342 5341 5339 5337 5335 5333 5331 5330 5328 5327 5326 5324 5322 5321 5320 5319 5317 5316 5315 5314 5313 5311 5311 5310 5309 5307 5306 5305 5304 5302 5302
5439 5435 5432 5429 5425 5422 5418 5415 5411 5408 5405 5401 5398 5395 5391 5387 5384 5382 5378 5375 5372 5369 5366 5364 5362 5360 5358 5356 5354 5352 5351 5350 5348 5347 5345 5344 5342 5340 5339 5337 5335 5333 5331 5329 5328 5326 5325 5323 5322 5320 5319 5318 5316 5315 5314 5312 5311 5310 5309 5308 5306 5305 5304 5303 5302 5301 5299 5298 5298
5433 5429 5425 5422 5419 5416 5412 5410 5406 5403 5399 5396 5393 5389 5386 5382 5380 5376 5374 5371 5368 5365 5363 5360 5358 5356 5354 5353 5351 5350 5348 5347 5345 5343 5341 5340 5338 5336 5335 5333 5331 5329 5328 5326 5324 5323 5321 5320 5318 5316 5315 5313 5312 5311 5310 5308 5307 5306 5305 5304 5303 5301 5300 5299 5298 5297 5295 5294 5293
5428 5424 5420 5417 5413 5410 5406 5404 5400 5397 5393 5389 5386 5383 5380 5377 5375 5371 5368 5366 5363 5361 5358 5356 5354 5352 5351 5349 5347 5346 5344 5342 5341 5339 5338 5337 5335 5333 5331 5330 5328 5326 5324 5322 5321 5319 5317 5315 5314 5313 5311 5310 5308 5307 5306 5305 5303 5302 5301 5300 5299 5298 5296 5296 5294 5293 5292 5290 5288
5423 5419 5415 5411 5408 5404 5401 5397 5394 5391 5387 5383 5381 5378 5375 5371 5369 5366 5363 5361 5358 5356 5354 5352 5351 5349 5347 5346 5343 5342 5340 5339 5337 5336 5335 5333 5331 5329 5328 5326 5324 5322 5320 5319 5317 5315 5313 5312 5310 5309 5308 5306 5304 5303 5302 5301 5300 5299 5298 5297 5295 5294 5293 5292 5290 5288 5287 5285 5284
5416 5413 5409 5406 5402 5399 5395 5391 5388 5384 5381 5377 5375 5372 5368 5365 5362 5359 5357 5355 5354 5352 5351 5349 5347 5346 5344 5342 5339 5338 5336 5335 5334 5332 5331 5330 5327 5326 5324 5322 5320 5318 5316 5314 5313 5311 5309 5308 5306 5305 5303 5302 5301 5300 5298 5297 5296 5295 5294 5292 5291 5290 5289 5287 5285 5284 5282 5280 5279
5410 5407 5403 5400 5396 5392 5388 5384 5381 5377 5374 5371 5368 5364 5361 5358 5356 5355 5353 5352 5350 5348 5347 5345 5343 5342 5340 5338 5336 5334 5333 5331 5330 5329 5327 5326 5324 5322 5320 5318 5316 5314 5313 5311 5309 5307 5306 5304 5302 5301 5300 5299 5297 5296 5295 5293 5292 5290 5288 5287 5286 5285 5284 5282 5281 5279 5277 5276 5274
5405 5401 5397 5392 5388 5384 5380 5376 5373 5370 5367 5363 5360 5358 5355 5353 5351 5350 5350 5348 5346 5345 5343 5342 5340 5338 5336 5334 5332 5331 5330 5328 5326 5325 5323 5322 5320 5318 5316 5314 5312 5310 5309 5307 5306 5304 5302 5300 5298 5297 5295 5294 5293 5292 5290 5289 5287 5285 5283 5282 5281 5279 5278 5277 5276 5274 5273 5271 5270
5399 5394 5390 5385 5381 5377 5373 5370 5367 5364 5361 5358 5356 5354 5351 5350 5349 5348 5346 5345 5344 5342 5340 5339 5336 5334 5332 5331 5330 5328 5326 5325 5322 5321 5319 5317 5316 5314 5312 5310 5308 5307 5305 5303 5302 5300 5298 5296 5294 5293 5291 5289 5288 5286 5285 5283 5282 5280 5277 5277 5275 5274 5273 5272 5271 5270 5268 5266 5265
5393 5389 5385 5380 5376 5373 5370 5367 5364 5361 5358 5355 5353 5352 5350 5348 5347 5346 5345 5343 5341 5339 5337 5335 5332 5331 5329 5327 5326 5324 5322 5321 5319 5317 5315 5313 5311 5309 5308 5306 5304 5302 5301 5299 5297 5295 5293 5291 5290 5288 5286 5283 5282 5281 5279 5277 5276 5275 5273 5271 5270 5268 5267 5266 5266 5265 5264 5263 5262
5389 5385 5380 5377 5373 5371 5367 5364 5361 5358 5356 5354 5352 5350 5348 5347 5346 5344 5342 5340 5338 5336 5333 5331 5329 5327 5326 5324 5322 5320 5319 5317 5315 5313 5311 5310 5307 5306 5304 5302 5301 5299 5297 5295 5293 5291 5289 5287 5285 5284 5282 5279 5277 5275 5274 5272 5271 5269 5268 5266 5264 5263 5262 5262 5261 5261 5261 5260 5260
5384 5380 5376 5373 5370 5367 5364 5361 5358 5356 5353 5351 5350 5349 5347 5345 5344 5342 5340 5338 5335 5333 5330 5328 5326 5324 5323 5321 5319 5317 5315 5313 5311 5309 5307 5305 5304 5302 5300 5298 5297 5295 5293 5291 5288 5286 5285 5283 5282 5280 5278 5276 5273 5270 5269 5267 5266 5264 5263 5262 5261 5260 5259 5259 5259 5259 5258 5257 5257
5379 5375 5372 5369 5366 5364 5361 5358 5356 5354 5352 5350 5349 5347 5345 5343 5341 5339 5337 5334 5331 5329 5327 5325 5323 5321 5319 5317 5315 5313 5311 5309 5307 5306 5303 5301 5299 5298 5297 5295 5293 5291 5289 5286 5285 5283 5281 5279 5277 5275 5274 5272 5268 5266 5265 5263 5261 5260 5259 5258 5258 5257 5256 5256 5256 5256 5256 5255 5255
5374 5371 5368 5366 5363 5360 5358 5356 5354 5352 5350 5348 5346 5345 5342 5340 5338 5336 5333 5331 5328 5326 5324 5322 5320 5318 5316 5314 5312 5310 5307 5306 5303 5302 5300 5297 5296 5294 5292 5291 5289 5287 5284 5283 5281 5278 5277 5276 5273 5271 5269 5267 5264 5262 5260 5259 5258 5256 5256 5256 5255 5255 5254 5254 5254 5254 5254 5254 5254
5369 5367 5364 5361 5359 5357 5355 5353 5351 5350 5348 5346 5344 5342 5340 5337 5334 5332 5330 5327 5326 5323 5321 5319 5317 5315 5312 5310 5308 5306 5304 5302 5300 5298 5296 5294 5292 5290 5289 5287 5285 5283 5281 5278 5277 5275 5273 5271 5269 5267 5265 5263 5261 5259 5257 5256 5254 5254 5253 5253 5253 5252 5252 5252 5252 5253 5253 5253 5253
5366 5364 5361 5358 5356 5354 5352 5350 5348 5346 5344 5342 5340 5338 5336 5333 5331 5328 5326 5324 5322 5320 5317 5315 5313 5310 5308 5306 5304 5302 5300 5298 5297 5294 5292 5290 5288 5287 5285 5283 5281 5278 5277 5275 5273 5271 5269 5267 5265 5263 5261 5259 5257 5256 5254 5253 5253 5252 5252 5251 5252 5252 5251 5251 5251 5252 5253 5253 5254
5363 5360 5357 5355 5353 5351 5348 5346 5344 5341 5340 5338 5335 5333 5331 5329 5327 5324 5323 5321 5318 5316 5314 5311 5309 5306 5304 5302 5300 5298 5297 5295 5293 5291 5289 5286 5284 5282 5281 5279 5277 5275 5273 5271 5269 5267 5265 5263 5261 5259 5258 5256 5255 5253 5252 5251 5251 5251 5250 5251 5251 5251 5251 5251 5252 5253 5253 5254 5254
5360 5358 5355 5352 5350 5347 5345 5343 5340 5337 5335 5332 5330 5329 5327 5324 5323 5321 5319 5317 5315 5312 5310 5308 5306 5303 5301 5299 5297 5294 5292 5291 5288 5287 5285 5282 5280 5278 5277 5275 5274 5272 5269 5267 5265 5263 5261 5259 5258 5256 5255 5253 5252 5251 5250 5250 5250 5250 5250 5250 5251 5251 5251 5252 5252 5253 5254 5254 5255
5357 5355 5351 5349 5347 5344 5341 5339 5336 5334 5331 5329 5326 5325 5323 5321 5319 5317 5315 5313 5310 5308 5306 5304 5302 5300 5297 5295 5293 5291 5289 5287 5284 5282 5281 5279 5276 5274 5273 5271 5270 5268 5266 5263 5261 5260 5258 5256 5255 5253 5252 5251 5250 5249 5249 5249 5250 5250 5250 5250 5250 5251 5252 5252 5253 5254 5255 5255 5255
5353 5350 5346 5344 5341 5339 5337 5334 5332 5330 5327 5325 5323 5321 5319 5317 5315 5313 5311 5309 5306 5304 5302 5300 5298 5295 5293 5291 5289 5287 5285 5283 5281 5279 5277 5275 5273 5271 5269 5268 5266 5264 5262 5260 5257 5256 5255 5253 5252 5251 5250 5249 5249 5249 5249 5249 5249 5249 5250 5251 5251 5252 5253 5254 5254 5255 5255 5256 5256
5347 5344 5341 5339 5336 5334 5332 5330 5327 5325 5324 5321 5320 5318 5316 5314 5311 5309 5307 5304 5302 5300 5297 5295 5294 5292 5290 5288 5286 5284 5282 5280 5277 5275 5273 5271 5269 5267 5266 5264 5262 5260 5258 5256 5254 5253 5252 5251 5250 5249 5248 5248 5248 5248 5248 5248 5249 5249 5250 5251 5252 5253 5254 5255 5255 5256 5257 5257 5256
5343 5340 5337 5335 5332 5330 5327 5326 5324 5321 5320 5318 5316 5314 5312 5309 5308 5306 5303 5301 5298 5296 5294 5292 5289 5288 5286 5284 5282 5280 5278 5277 5275 5272 5269 5267 5266 5264 5261 5259 5257 5256 5254 5253 5252 5250 5250 5248 5248 5248 5247 5246 5247 5247 5247 5248 5248 5250 5250 5251 5253 5255 5256 5256 5256 5256 5256 5256 5256
5340 5336 5334 5331 5328 5327 5325 5322 5321 5318 5316 5314 5312 5310 5308 5306 5304 5302 5300 5297 5295 5293 5290 5288 5286 5285 5283 5281 5279 5277 5276 5274 5272 5270 5267 5265 5262 5260 5258 5255 5254 5252 5251 5250 5249 5248 5247 5247 5247 5246 5246 5245 5246 5246 5247 5247 5248 5250 5251 5252 5254 5255 5256 5256 5255 5255 5254 5254 5254
5336 5332 5330 5328 5326 5324 5322 5320 5318 5315 5313 5311 5309 5306 5304 5303 5300 5298 5296 5293 5291 5289 5287 5285 5283 5281 5280 5277 5276 5274 5272 5271 5269 5266 5264 5261 5258 5256 5254 5252 5250 5249 5248 5248 5247 5246 5246 5245 5245 5245 5245 5244 5245 5245 5246 5246 5248 5249 5250 5252 5253 5253 5254 5254 5253 5253 5252 5252 5252